Theta_e
365 365 363 363 364 364 364 364 363 364 363 360 360 360 357 356 357 356 356 357 356 358 359 358 357 358 357 356 356 355 357 358 358 359 360 361 361 359 357 360 362 362 361 359 359 358 360 362 362 362 361 361 359 359 358 358 359 360 359 357 357 357 358 358 359 359 358 355 355 354 353 353 353 354 354 354 354 354 353 353 353 353 352 352 351
365 365 365 363 365 365 364 365 364 364 364 362 361 361 360 358 358 358 357 357 358 357 359 359 357 356 356 356 355 355 356 358 359 358 360 362 362 360 358 360 362 362 362 362 361 360 361 363 363 362 361 361 361 359 357 356 358 359 359 359 359 358 359 359 359 360 359 359 358 357 356 356 356 356 357 357 357 357 357 357 357 356 356 355 356
365 365 365 364 365 365 364 365 364 364 364 363 362 361 361 361 359 359 358 357 358 359 359 360 358 357 358 356 356 356 356 358 359 359 359 361 362 360 358 359 361 362 362 363 362 361 361 362 363 361 361 360 362 361 359 356 356 355 356 357 358 358 358 358 359 360 360 359 360 358 358 359 358 359 359 358 359 360 361 361 360 359 358 357 358
364 365 366 365 364 366 365 364 364 363 363 363 361 360 360 361 360 360 359 357 358 360 360 360 359 360 359 358 358 358 358 358 360 360 359 360 362 362 359 359 360 361 362 362 361 361 361 362 362 361 359 359 361 362 360 358 357 356 356 356 357 358 357 358 359 361 361 360 360 360 360 361 361 360 360 360 360 361 361 361 361 361 360 360 359
364 366 365 364 364 366 366 364 363 364 362 361 361 359 357 360 361 362 360 356 357 360 360 361 361 362 361 361 361 361 360 360 360 360 359 360 361 362 361 359 360 361 362 362 361 360 361 361 361 360 359 359 361 361 361 360 359 358 358 358 359 360 360 360 361 362 362 362 361 361 360 361 361 361 360 361 360 360 360 360 361 361 361 361 361
363 366 366 364 364 366 366 365 364 363 361 360 360 359 356 358 360 361 360 357 356 359 361 360 361 363 364 362 362 362 363 363 362 361 359 359 360 361 360 360 359 360 361 362 362 361 360 360 360 360 360 359 360 360 360 360 361 361 361 360 360 360 361 362 362 362 362 361 361 360 360 360 360 359 360 359 359 359 359 359 359 360 361 362 362
364 366 365 363 364 366 366 365 363 362 361 360 359 358 357 356 357 360 361 359 356 357 359 360 360 363 365 364 363 363 365 364 364 364 361 358 360 362 360 359 359 360 360 361 361 359 359 360 360 359 360 360 360 360 359 360 361 362 363 363 363 362 362 362 361 361 362 361 361 360 360 360 359 359 358 358 359 358 358 359 361 361 362 362 363
364 366 365 364 364 367 367 365 362 361 362 361 359 358 357 355 355 358 360 359 357 355 357 360 360 362 365 365 363 364 365 366 365 366 364 360 359 360 362 359 358 358 360 361 360 357 356 356 357 358 358 360 360 360 360 360 361 361 362 363 363 364 363 363 362 362 362 361 360 360 360 359 358 359 358 357 358 358 359 360 363 364 364 364 363
364 366 366 365 366 367 367 366 363 363 363 361 359 358 358 356 354 357 359 360 358 356 355 357 359 361 363 365 364 363 365 367 366 366 366 364 360 359 362 362 359 358 359 359 359 357 354 352 352 353 355 357 360 360 359 359 360 361 361 363 363 364 364 363 363 362 362 361 360 360 359 358 358 357 357 358 358 359 362 363 365 365 363 362 361
363 365 367 366 367 368 369 367 365 364 363 363 362 359 359 358 356 356 360 360 359 356 355 355 358 360 362 364 365 363 363 365 366 366 366 365 363 360 360 363 362 359 357 359 358 356 354 351 350 350 351 354 357 358 358 358 357 355 354 357 361 364 365 365 363 362 362 361 360 360 358 358 357 358 359 359 359 362 365 365 364 363 360 360 359
364 365 366 368 367 369 370 369 367 365 364 364 363 361 359 359 358 357 360 361 360 358 356 355 356 359 361 363 364 364 363 364 365 365 363 363 364 362 359 361 363 361 359 358 357 355 354 352 351 349 350 353 355 356 356 356 354 352 348 347 351 358 362 364 364 363 362 362 361 360 358 359 359 360 360 360 361 365 366 365 362 360 359 358 357
364 365 367 368 368 370 371 370 369 367 365 365 365 363 361 360 360 360 360 363 362 360 358 358 357 358 360 362 363 364 364 363 364 364 363 361 361 362 360 359 361 362 361 358 357 357 356 354 352 350 349 352 356 357 357 357 356 354 351 348 348 349 351 354 356 359 362 363 362 360 360 360 360 361 362 362 363 365 365 363 359 358 358 358 357
364 366 368 368 369 371 371 371 370 368 367 367 366 366 363 362 361 361 362 363 364 362 361 359 359 359 359 360 362 363 363 363 362 363 363 360 357 358 360 359 359 360 360 359 358 357 357 355 353 351 348 349 353 357 360 362 362 360 358 356 354 351 349 349 351 353 357 359 361 361 361 360 361 362 363 364 365 365 364 361 358 356 357 356 356
364 366 368 368 370 371 372 372 371 370 369 368 368 367 365 364 364 363 363 364 365 364 362 361 362 361 360 361 361 363 363 363 363 362 362 361 358 355 356 358 358 358 359 359 358 358 357 358 356 356 353 350 352 355 360 363 365 365 364 362 361 358 355 355 354 354 355 356 359 361 361 361 363 363 363 363 364 363 362 360 358 356 354 353 353
364 366 368 370 371 372 372 372 371 372 370 370 370 369 366 365 365 363 363 364 366 367 365 363 363 363 362 361 361 363 364 363 363 363 361 361 359 357 355 356 356 357 358 359 360 360 360 360 359 358 356 356 354 354 359 363 365 367 367 367 365 364 363 363 361 359 359 359 359 360 361 362 363 363 363 362 362 361 359 357 356 355 353 353 352
365 367 368 370 372 372 372 372 372 373 371 370 370 370 368 368 366 365 363 364 366 367 366 365 365 365 364 362 361 362 364 363 363 363 362 361 359 357 357 357 357 357 357 359 361 362 362 362 362 361 360 361 360 358 358 361 365 367 368 367 366 365 365 364 363 361 361 360 360 359 360 361 361 361 360 360 361 359 355 354 352 351 351 351 349
365 367 369 369 372 372 372 372 372 372 371 371 371 371 370 369 368 367 365 363 363 366 367 365 365 365 365 364 363 362 362 363 362 362 362 362 360 358 358 359 360 359 358 359 361 362 363 363 364 364 363 363 363 363 361 361 363 365 366 365 365 364 363 361 361 360 359 358 359 359 359 360 359 360 360 361 358 349 345 348 349 347 347 349 348
365 367 369 369 371 372 371 372 372 371 373 372 371 371 370 369 369 368 366 363 361 363 365 366 365 365 366 365 364 363 362 361 362 361 362 362 360 359 359 360 361 361 361 361 362 362 363 363 363 364 365 365 365 364 363 363 363 365 365 364 363 364 363 360 358 359 359 359 359 359 359 359 359 360 360 357 349 340 339 345 347 346 346 346 345
366 368 369 369 371 372 370 371 372 372 372 371 370 371 370 370 369 369 366 364 361 360 362 365 365 365 365 364 364 364 362 361 361 362 361 361 360 359 360 361 362 362 362 362 362 363 363 364 364 363 363 365 365 365 364 364 364 365 366 365 364 364 361 359 359 361 361 361 361 361 361 360 361 360 357 351 344 340 341 343 346 347 345 341 339
366 370 370 369 370 371 371 372 372 371 372 371 370 370 370 369 370 368 366 365 362 360 361 363 364 365 363 362 363 364 364 363 361 361 361 361 360 360 361 362 362 362 364 363 363 364 364 363 364 363 362 362 363 365 365 365 364 364 365 365 364 362 361 361 363 363 364 364 364 361 361 362 360 357 353 350 348 345 343 345 347 345 339 336 337
367 370 371 369 370 371 371 371 371 371 371 371 370 370 369 368 368 368 367 365 364 362 360 361 362 363 363 361 361 362 364 364 363 362 361 361 361 359 360 363 363 363 365 364 362 363 363 364 365 364 363 361 360 360 362 363 363 363 363 363 363 362 361 361 363 363 363 363 361 361 361 361 356 350 346 346 346 344 344 345 342 338 335 337 339
368 371 370 369 369 370 371 371 371 371 370 371 369 369 370 369 368 368 368 366 365 364 363 361 361 362 362 361 361 361 363 364 364 364 363 362 361 360 360 362 363 363 364 364 363 362 362 363 365 365 365 364 362 360 359 359 359 359 359 360 360 360 359 359 360 361 361 360 360 361 360 355 349 344 341 340 339 340 340 338 336 336 338 340 340
369 371 370 368 368 370 370 371 370 369 369 371 369 370 370 369 368 369 368 367 367 366 366 364 363 363 362 362 361 362 363 363 365 363 363 362 361 360 360 360 361 363 363 364 365 363 362 363 364 365 366 365 364 362 360 358 358 357 357 357 357 356 356 355 357 359 359 360 361 360 355 348 343 341 341 339 338 337 336 336 338 340 341 341 340
371 371 370 368 369 369 370 371 370 368 369 371 370 370 370 369 369 370 369 369 368 368 367 367 365 365 364 362 362 362 363 365 364 363 362 363 361 361 360 359 360 361 363 363 364 363 363 363 363 364 365 364 363 363 360 359 358 357 356 355 354 353 353 355 357 358 358 360 359 355 348 344 343 341 340 338 337 337 338 340 341 341 341 341 341
372 372 370 369 369 369 369 371 370 368 369 371 371 371 370 369 369 370 369 369 369 368 369 368 368 365 365 364 363 363 363 365 365 364 363 363 362 361 360 359 358 359 360 362 363 362 362 362 363 364 364 362 362 361 360 359 357 355 354 353 353 353 354 356 358 359 359 358 354 349 345 343 343 342 338 336 338 340 341 341 341 340 340 340 340
373 372 370 369 368 368 369 370 369 368 369 370 371 371 371 370 370 370 370 370 368 369 369 368 368 367 366 365 365 364 364 364 365 366 365 363 362 362 361 360 359 358 358 359 361 360 360 359 360 361 362 362 361 360 359 357 356 354 353 353 354 355 356 357 358 359 358 353 347 345 344 343 342 339 337 337 341 342 342 340 340 340 339 338 339
372 371 370 369 368 368 368 369 369 368 368 370 371 371 371 371 369 369 370 369 368 368 367 366 367 366 365 365 363 364 365 364 364 366 365 363 362 362 361 360 359 358 357 357 358 358 357 357 357 357 359 359 358 357 357 356 354 353 353 353 355 356 357 357 357 355 352 348 345 343 342 340 339 338 338 340 342 342 339 338 339 339 338 338 340
371 371 370 368 368 367 367 368 368 368 368 369 370 370 370 369 369 369 369 368 366 366 366 365 364 364 364 364 363 364 365 365 365 366 365 363 362 361 361 360 359 358 357 356 356 358 357 355 355 355 355 356 356 356 355 354 352 352 353 352 355 356 355 354 353 350 347 345 343 343 340 338 338 338 338 339 339 339 338 338 338 338 338 339 340
371 371 369 368 369 367 368 367 368 368 368 368 368 369 369 369 368 368 368 367 366 365 365 365 364 364 364 363 363 365 366 365 365 366 366 365 363 361 361 360 359 358 357 356 356 357 357 355 355 356 356 356 356 356 355 353 352 351 351 353 355 354 351 349 347 346 345 344 342 341 339 338 338 338 337 338 338 338 338 336 337 338 338 339 339
370 370 370 369 368 368 367 367 366 368 368 368 368 369 367 367 369 369 369 367 365 365 365 365 364 365 364 363 365 365 366 366 366 365 366 366 365 363 362 361 358 358 358 357 356 356 358 357 356 356 357 356 356 356 355 353 353 352 351 353 354 351 347 344 341 341 342 341 341 340 338 337 337 337 337 338 337 337 337 336 337 338 337 337 337
370 370 369 368 367 367 366 366 365 367 368 368 369 368 366 365 365 368 369 368 366 364 365 365 366 365 364 366 368 367 366 369 368 366 366 367 366 365 363 362 360 358 358 356 355 356 358 359 357 356 357 356 355 356 356 354 353 353 353 353 351 347 342 338 337 339 341 340 339 338 336 335 336 336 337 336 336 336 337 337 337 336 335 335 335
368 368 368 367 366 367 367 367 366 367 367 368 369 370 368 364 362 363 366 367 367 365 365 364 366 365 364 368 371 369 366 368 369 366 366 366 365 364 364 363 361 359 357 355 355 356 359 359 358 357 357 356 355 356 355 355 353 353 353 351 347 342 337 336 338 341 340 338 338 337 336 335 335 336 336 334 334 335 337 338 337 335 335 333 333
366 366 367 367 366 367 368 368 367 368 367 368 370 371 370 369 365 361 360 362 365 364 364 364 365 364 364 367 369 369 367 367 367 367 366 365 365 364 364 362 361 359 357 355 355 357 359 359 359 359 358 357 356 355 355 355 354 353 351 348 343 339 337 338 340 340 339 337 337 336 335 334 335 335 334 334 334 335 337 337 336 335 334 333 332
366 365 367 368 368 368 369 370 370 369 368 370 372 372 370 370 368 364 361 360 362 362 361 362 363 363 364 364 366 367 367 367 366 367 366 364 364 363 362 361 359 357 355 355 356 359 360 360 360 360 359 358 357 356 356 355 353 352 349 344 340 340 342 341 341 340 339 338 337 335 334 333 333 334 335 335 336 336 336 335 334 334 333 332 330
367 368 368 369 369 370 370 371 371 371 371 371 372 371 370 370 370 368 366 362 363 364 361 358 359 361 362 362 362 363 365 365 366 365 365 363 362 361 360 358 355 353 353 355 357 359 360 360 360 360 359 359 358 356 355 354 352 349 345 340 338 342 344 343 340 339 338 336 334 334 334 333 333 333 334 334 335 335 334 334 333 333 332 331 330
368 369 370 370 370 370 369 371 371 372 372 373 372 371 370 370 369 370 368 365 367 366 360 353 354 358 360 360 360 361 361 362 363 362 362 362 360 359 357 356 355 353 352 354 357 359 360 361 361 360 359 359 358 355 353 351 348 344 341 340 341 343 343 340 338 338 338 336 335 335 334 334 333 333 332 334 334 334 333 332 331 331 331 329 329
366 367 368 370 369 369 369 371 371 371 372 373 372 371 370 370 369 369 368 368 366 362 353 348 351 354 354 355 358 358 359 359 360 359 359 359 358 358 357 358 358 356 354 355 356 356 357 359 359 357 356 355 354 353 350 347 344 342 341 342 343 342 340 338 338 339 338 336 336 336 334 333 334 334 332 332 333 333 333 331 330 330 330 329 329
362 362 365 368 369 369 369 370 370 370 371 372 371 370 369 369 368 367 365 364 360 355 351 349 350 350 348 350 354 356 355 356 356 355 355 354 354 354 356 358 359 357 355 354 352 352 352 353 353 354 352 349 348 348 347 344 343 343 342 342 341 340 339 339 339 339 338 336 336 337 334 333 335 335 332 331 331 332 332 331 330 330 330 329 329
359 358 361 364 365 366 367 366 367 367 367 367 367 367 366 365 365 365 363 360 357 355 353 352 353 351 347 345 347 349 349 349 349 348 349 350 350 352 354 355 355 353 350 348 348 348 349 348 347 348 348 346 344 343 343 341 341 341 340 340 339 339 338 337 337 337 337 335 336 336 335 333 334 334 333 331 331 331 331 330 330 329 329 329 329
357 356 356 358 361 361 361 363 364 365 364 364 364 364 364 363 363 364 362 362 360 356 352 350 350 348 343 340 343 346 347 346 345 344 345 346 348 349 349 347 346 345 343 342 343 345 345 343 341 341 341 340 339 338 338 337 336 336 336 336 336 336 336 335 335 335 335 335 334 335 334 334 333 333 332 331 330 330 330 329 329 328 329 328 328
351 350 350 353 355 356 355 355 357 359 360 360 359 358 358 358 359 360 361 360 356 352 349 347 345 341 339 340 343 346 347 346 344 343 343 343 344 343 342 340 339 339 338 337 338 339 338 337 337 336 336 336 335 335 335 335 334 334 335 335 335 334 335 335 335 335 334 334 334 333 333 333 332 332 331 331 330 330 329 328 328 328 328 329 329
345 345 345 347 349 350 351 350 350 351 352 351 350 350 351 351 352 354 355 353 349 346 344 340 337 336 338 339 342 345 346 344 342 341 341 340 339 339 338 337 336 336 335 335 335 335 334 334 334 334 334 334 333 333 334 334 332 332 334 334 334 334 334 334 334 334 333 333 333 332 332 332 332 331 331 330 329 330 330 329 329 329 329 329 328
341 340 340 341 343 345 346 345 344 344 344 343 342 343 343 344 344 344 343 342 340 338 336 333 332 334 336 338 340 341 341 339 337 336 336 336 337 336 335 333 333 334 334 333 333 332 332 332 332 331 331 331 332 332 333 332 332 333 333 333 332 332 333 333 332 332 332 332 331 331 331 331 331 331 331 330 330 330 330 329 329 329 329 329 328
338 337 336 336 337 338 339 339 339 338 338 338 337 338 338 338 337 336 335 335 334 333 331 330 331 332 334 336 337 337 334 332 331 332 331 331 331 330 329 327 327 328 329 330 329 329 329 328 327 327 327 327 327 327 326 327 328 329 331 331 329 327 327 328 328 329 328 328 329 330 329 330 330 329 329 329 329 329 328 328 328 328 328 328 328
336 334 333 332 332 332 333 334 335 335 335 335 335 335 335 334 333 332 331 331 330 330 330 331 332 333 334 335 335 333 331 328 327 326 326 324 323 322 322 322 322 322 323 324 324 324 324 323 322 322 322 322 322 321 321 321 322 322 323 324 323 323 323 323 324 325 325 325 326 326 326 326 327 327 326 326 326 326 326 327 327 326 327 327 327
332 332 330 329 328 328 328 328 328 330 331 332 333 332 332 331 330 329 329 329 329 330 330 331 331 332 332 332 331 329 327 325 324 322 321 320 319 318 318 318 318 318 319 320 320 320 320 320 319 319 318 318 318 317 317 318 319 319 320 320 321 321 322 322 321 322 322 323 322 323 323 323 323 323 323 322 322 323 323 323 323 324 324 325 325
329 328 328 327 326 325 325 325 325 324 324 324 326 328 329 327 327 327 328 328 328 328 329 330 329 329 328 326 325 324 324 323 322 321 319 318 317 317 316 315 316 316 316 316 317 317 317 317 317 316 315 315 315 314 314 314 314 314 315 316 317 317 318 318 318 319 319 318 318 320 321 321 321 321 320 320 320 320 321 321 321 321 321 321 322
324 323 324 324 323 323 323 323 323 322 321 321 321 322 324 324 324 325 326 325 324 324 325 327 327 326 325 323 321 321 320 321 320 319 318 317 316 315 315 314 313 313 314 314 315 315 315 314 314 313 313 313 313 313 313 313 312 312 312 313 313 313 313 313 314 314 313 313 316 319 320 320 320 319 319 318 319 318 319 320 320 319 319 319 320
319 318 319 318 318 319 319 320 320 320 320 319 319 319 320 320 320 320 320 320 320 319 320 321 323 322 322 321 319 318 318 318 317 316 316 315 314 313 312 312 311 311 311 311 312 312 312 312 311 311 311 311 311 311 311 311 310 310 310 310 310 311 310 310 311 310 309 311 316 319 319 318 319 319 319 318 318 319 319 319 318 318 318 318 318
315 315 314 313 313 313 314 315 316 316 317 317 317 317 317 317 316 316 316 317 316 316 316 317 317 318 318 317 316 315 315 314 314 313 313 312 311 310 310 309 309 308 308 308 308 308 309 309 309 309 309 309 309 309 309 309 309 309 309 309 308 309 309 309 309 309 309 311 315 318 319 318 318 319 319 318 317 316 316 315 315 315 316 316 316
311 311 310 310 309 309 309 310 311 311 312 313 313 314 314 315 315 315 315 315 314 314 313 313 313 313 313 313 312 311 311 310 310 310 309 309 308 307 307 306 306 306 306 306 306 306 306 306 306 306 306 306 306 305 305 305 305 305 306 307 308 309 309 309 309 309 309 310 312 314 315 315 315 316 316 314 314 313 313 313 312 313 314 315 315
Wind_Speed
34 33 33 31 30 30 30 30 28 26 25 25 24 24 24 23 22 21 20 20 20 20 20 20 19 19 18 17 17 16 16 15 14 14 13 13 12 11 11 11 12 11 11 11 10 9 9 9 9 8 8 8 8 8 8 8 9 8 8 8 9 9 9 9 9 10 11 11 12 13 12 13 14 14 15 16 16 16 18 20 21 22 24 26 26
34 33 32 32 32 32 31 30 29 27 26 26 25 24 24 24 23 21 21 21 21 21 21 21 20 20 19 19 18 18 17 17 16 15 14 14 14 13 12 12 12 12 12 11 11 11 10 10 10 10 10 10 10 9 9 9 9 9 9 9 9 9 9 10 11 11 12 11 12 13 13 13 14 15 15 16 16 16 17 19 19 20 21 22 23
34 33 32 33 33 32 31 30 29 29 27 26 26 25 24 24 23 23 22 22 22 22 22 22 22 22 21 20 20 20 19 18 18 17 17 16 15 15 14 13 13 13 13 13 12 12 12 12 12 11 11 11 11 11 10 10 10 10 10 10 10 10 10 11 11 12 13 13 12 13 13 13 14 15 16 16 17 17 18 19 19 19 20 21 20
34 34 33 33 33 32 32 31 31 31 29 27 27 27 26 24 24 24 23 23 23 23 22 22 22 23 22 21 21 21 21 20 19 19 18 17 17 16 15 14 14 14 14 14 13 13 13 13 13 12 12 12 12 12 12 11 11 11 11 11 11 12 11 11 12 13 13 14 13 13 13 14 15 16 16 16 16 16 17 17 18 19 21 21 20
34 34 34 34 34 34 33 33 32 32 31 29 29 29 27 26 25 25 25 24 23 23 23 22 22 23 23 23 23 23 22 22 21 20 19 19 18 18 17 16 15 15 15 15 14 14 14 14 14 13 13 13 13 13 12 12 12 12 12 11 11 11 11 11 12 12 13 14 15 14 14 14 15 16 16 16 16 16 16 17 18 20 21 20 19
34 34 34 34 35 35 34 34 33 33 32 30 29 29 28 27 26 25 25 25 24 24 24 23 23 24 24 23 23 23 23 22 22 21 20 20 19 19 18 18 17 17 16 16 16 15 15 15 15 14 14 14 14 14 13 13 12 12 12 12 11 11 11 11 12 12 13 14 15 15 15 14 15 15 15 15 16 16 17 19 19 20 21 20 18
34 34 34 34 35 35 36 35 34 34 33 31 30 29 29 28 27 26 25 25 25 25 25 25 24 24 24 23 23 23 23 23 23 22 22 21 20 20 19 19 19 18 18 18 17 17 17 16 16 16 16 16 15 15 14 13 13 13 13 12 12 11 12 12 12 12 13 14 15 15 14 14 14 15 14 15 16 17 18 20 20 20 21 20 18
33 34 34 34 35 36 36 35 34 33 32 31 30 29 29 29 28 27 26 26 26 26 26 25 25 24 24 24 23 23 23 23 23 23 23 22 21 20 20 20 19 19 18 18 18 18 18 18 17 17 17 17 17 16 15 14 13 13 13 12 12 12 12 11 11 12 13 13 14 14 14 14 14 14 15 16 17 16 17 19 20 21 22 21 19
33 33 33 34 34 35 35 33 33 33 32 31 31 30 29 29 28 27 27 27 27 27 26 26 25 25 24 24 23 23 23 23 23 24 24 23 22 21 21 20 20 19 18 18 18 18 18 18 18 18 19 19 19 18 17 16 15 13 12 12 12 12 12 12 12 12 12 13 13 13 13 14 14 14 15 16 17 17 16 16 17 20 23 24 22
32 32 33 32 32 33 33 32 32 33 32 32 31 30 29 28 29 28 28 27 27 27 27 26 25 25 24 24 24 24 24 24 25 27 26 25 23 22 21 21 20 20 19 18 18 18 18 18 18 18 19 20 21 21 21 21 20 18 15 14 13 12 12 12 13 13 13 13 13 13 14 15 14 14 14 16 18 16 13 13 16 20 22 24 23
32 31 31 30 30 31 32 31 32 33 33 32 32 31 29 28 28 29 28 27 27 27 27 27 26 26 25 25 25 25 25 25 27 29 30 27 24 22 21 21 20 20 20 19 19 18 18 18 18 18 18 18 20 22 24 24 24 24 23 21 19 16 14 14 13 13 13 14 14 14 15 16 15 14 15 17 17 14 13 14 16 20 21 21 22
32 31 30 29 30 31 31 31 32 33 33 32 31 31 30 28 28 29 28 28 27 27 27 27 27 26 25 25 25 25 25 25 27 30 31 31 28 23 20 20 20 20 20 20 19 19 18 18 18 18 18 18 19 21 23 24 25 24 24 23 21 20 20 20 18 16 14 14 14 15 16 17 17 15 15 16 17 16 16 15 16 19 21 20 21
31 31 30 30 30 30 30 30 31 32 32 32 31 31 31 29 28 28 28 28 27 26 26 27 27 26 25 25 25 25 25 26 28 29 31 33 32 27 21 19 20 20 20 20 20 19 19 19 18 18 18 18 19 19 20 21 21 22 20 19 19 18 19 21 22 22 19 16 16 16 17 17 18 17 15 16 18 17 15 16 17 18 20 20 21
31 31 30 30 30 30 30 30 30 31 32 31 30 30 31 30 29 28 28 27 27 27 27 27 27 27 26 25 24 24 25 26 28 29 30 31 33 32 26 20 19 20 20 20 20 20 20 20 19 19 18 18 18 18 18 18 18 18 17 17 18 18 17 16 17 18 20 20 19 18 17 18 20 20 17 16 16 17 18 20 20 19 20 21 22
30 31 30 30 31 31 32 31 30 29 30 31 30 31 31 30 29 28 28 27 27 26 26 26 26 27 27 26 24 23 23 25 26 28 30 30 31 32 29 23 19 19 19 20 20 20 20 20 19 19 19 19 20 19 19 18 16 16 15 15 16 16 16 15 15 15 16 18 20 19 19 20 21 21 19 17 18 22 24 23 20 20 20 19 19
30 31 31 31 32 32 32 32 30 29 30 30 30 30 30 30 29 28 27 27 26 25 25 25 26 26 26 26 26 24 23 24 25 26 28 29 29 31 31 26 21 19 19 20 20 20 20 20 19 19 19 19 20 21 22 19 16 15 14 14 14 15 15 15 16 16 16 16 18 18 18 19 21 23 23 23 24 25 23 19 17 17 17 17 17
31 32 33 32 33 33 32 32 31 30 30 31 30 30 29 29 29 28 27 26 26 25 25 25 25 26 26 26 26 25 24 25 25 25 27 27 27 30 31 26 21 20 20 19 20 20 20 21 20 19 19 20 20 21 23 22 18 15 14 14 14 14 14 14 15 16 18 18 18 17 17 19 21 22 24 25 24 21 18 16 15 15 15 16 15
32 33 34 34 33 33 33 32 31 31 31 31 30 29 28 28 28 28 27 26 26 26 25 24 24 25 26 26 26 26 25 26 27 27 28 28 28 29 28 24 21 20 20 19 19 19 20 22 23 22 20 20 20 21 22 22 19 16 15 14 14 14 13 13 13 13 14 16 17 17 17 18 19 19 20 21 17 14 13 15 14 14 15 15 16
35 35 34 33 32 32 32 32 31 31 31 30 29 29 28 27 27 27 26 26 26 25 25 24 24 24 25 26 27 26 26 27 28 29 29 30 30 29 26 22 20 20 19 19 19 20 20 21 24 26 24 21 20 20 21 22 20 17 15 14 14 14 13 12 12 9 8 10 13 15 16 17 17 17 17 15 12 11 12 13 12 12 14 17 18
35 33 32 32 31 31 31 32 32 31 30 30 28 28 27 26 26 26 26 25 24 25 25 24 23 24 24 25 26 26 26 26 28 30 31 31 32 31 27 22 20 20 19 19 19 20 21 21 22 26 28 26 24 22 21 21 20 17 15 14 14 13 11 9 9 8 7 8 10 11 13 14 14 15 15 14 13 13 12 12 12 12 14 17 17
32 31 30 31 31 30 30 31 31 30 29 29 27 26 26 26 26 26 25 23 23 24 24 23 23 23 23 24 24 25 26 26 27 29 32 32 33 33 29 24 21 20 19 19 20 19 20 21 21 23 26 28 29 28 26 24 23 20 17 15 15 14 12 9 8 7 8 9 9 11 13 13 12 12 11 10 9 9 9 9 11 12 13 14 14
30 30 30 30 30 30 29 30 30 28 27 27 27 26 25 25 24 24 23 22 22 22 23 23 22 22 22 23 23 24 25 26 27 28 31 32 33 34 32 27 23 21 19 19 20 20 19 19 19 21 23 23 25 27 28 27 27 26 23 20 18 17 16 15 12 10 10 10 11 12 12 11 11 10 8 6 5 5 5 8 10 10 10 10 10
30 30 30 30 29 29 29 29 28 27 26 27 27 25 24 24 23 23 22 21 21 21 21 21 21 21 21 21 22 22 22 25 29 30 30 31 32 33 33 30 27 24 21 19 19 19 19 18 18 19 20 21 20 20 21 23 25 26 24 22 21 20 19 16 13 11 12 12 13 13 11 10 10 8 6 5 4 4 6 8 9 8 8 8 8
29 28 29 29 29 28 27 28 27 26 25 27 26 25 24 24 23 23 22 21 21 20 20 21 21 21 21 21 21 22 21 22 27 30 30 30 31 32 32 32 30 28 24 20 18 18 18 19 19 18 17 17 17 16 16 17 19 18 17 17 18 17 16 13 11 12 14 14 13 12 10 10 9 6 4 3 5 6 6 7 7 7 8 8 9
27 27 28 28 28 27 26 26 26 25 26 27 26 25 25 24 23 23 23 22 21 20 20 20 20 21 20 20 20 21 21 20 23 27 29 29 30 31 31 32 33 32 28 22 19 19 18 17 17 17 16 15 15 15 15 15 15 14 13 14 15 14 13 13 13 13 13 13 12 11 10 9 7 5 5 5 5 6 5 5 6 8 9 9 11
25 25 26 26 27 26 25 25 25 25 25 25 25 25 25 25 24 23 23 23 22 21 20 20 20 20 20 20 20 20 20 21 22 25 29 30 30 31 31 31 32 33 32 27 23 21 18 14 12 12 12 14 14 14 14 13 12 13 13 13 13 13 12 13 14 13 13 12 11 11 9 7 6 5 6 6 5 4 3 4 6 7 8 9 11
24 23 24 25 25 25 25 24 24 24 24 24 23 23 24 24 24 23 23 23 22 21 21 21 21 21 20 20 20 19 20 21 21 22 27 32 33 32 33 32 32 34 35 33 28 23 18 15 13 10 10 12 12 11 11 11 11 13 14 14 14 13 13 15 14 13 13 11 9 8 7 6 5 5 6 6 5 3 2 3 5 6 7 9 11
23 22 23 23 23 24 24 24 23 23 23 23 23 23 23 23 23 24 24 24 23 22 21 21 21 21 20 19 19 19 20 21 21 21 25 31 34 34 34 35 35 36 37 34 27 23 19 16 13 11 10 10 11 10 10 10 11 12 14 15 14 13 14 16 14 12 12 10 8 7 7 6 6 5 5 6 4 3 2 2 4 6 7 9 10
21 21 22 21 21 22 22 23 23 22 22 22 21 21 22 22 22 23 23 23 23 21 21 21 21 20 20 20 20 19 19 21 22 22 23 26 30 33 35 36 35 34 34 31 26 22 20 16 13 13 14 13 14 15 13 12 12 13 14 15 15 13 14 16 15 13 11 10 9 9 8 7 6 6 6 6 4 3 3 2 3 5 7 8 9
20 20 20 19 20 21 20 21 21 20 20 22 20 18 19 20 20 21 22 23 24 23 21 21 21 21 21 20 20 20 20 20 21 23 22 23 24 26 28 30 30 28 29 30 28 23 20 18 16 17 19 18 18 19 17 15 15 16 16 16 17 16 15 16 15 13 12 11 11 10 9 8 7 7 7 6 5 4 4 3 4 5 6 8 9
19 19 19 18 19 20 19 20 20 19 20 21 20 18 17 16 17 18 20 23 25 25 23 21 20 21 20 18 16 17 17 15 15 19 22 21 21 22 21 21 21 22 24 28 28 24 21 21 20 19 20 21 20 20 19 18 17 18 18 18 18 17 16 16 15 14 13 12 11 10 9 8 7 7 6 5 4 4 4 4 4 5 6 7 8
17 17 17 18 19 20 19 19 19 19 19 19 19 19 18 16 14 14 16 21 25 27 26 22 19 19 18 15 13 14 15 14 13 16 19 20 21 22 20 16 16 19 22 26 27 24 23 24 23 21 21 22 21 21 21 20 20 20 19 18 18 17 16 16 16 15 13 12 11 10 9 8 7 6 5 4 4 4 4 5 4 4 5 7 7
17 17 16 17 19 19 18 18 19 19 19 19 19 19 18 18 15 13 12 16 21 24 26 24 21 19 17 14 12 13 14 15 14 14 16 18 18 18 18 17 16 18 23 26 25 22 23 24 23 22 22 23 22 22 22 21 20 19 18 17 17 16 16 17 18 16 12 11 11 10 9 9 7 6 6 5 5 5 5 5 5 5 5 6 7
14 15 16 17 18 18 17 17 18 19 18 18 19 19 19 19 17 15 14 13 15 18 21 23 24 22 19 15 13 12 13 14 15 14 15 15 14 14 16 18 18 20 24 25 22 20 22 24 23 22 22 21 20 20 19 18 16 15 16 16 15 14 14 17 18 15 11 11 11 10 10 10 8 7 7 6 6 5 5 5 5 4 3 5 7
13 12 13 15 16 17 17 17 17 18 18 18 18 19 20 19 18 18 17 16 14 14 15 17 21 23 22 19 16 14 13 13 13 13 13 13 13 14 17 18 19 20 23 23 21 19 21 22 21 20 19 18 18 18 17 16 14 14 17 18 17 14 13 14 15 14 12 12 12 11 10 9 7 7 6 6 5 5 5 5 5 4 3 4 6
11 11 13 14 13 13 15 15 16 17 17 17 17 18 18 18 17 17 18 19 18 16 14 15 17 19 21 21 19 17 16 15 14 15 15 14 14 16 17 17 18 19 20 21 21 20 19 19 18 18 18 18 18 18 17 16 16 17 18 18 16 13 13 13 14 14 13 11 10 10 9 8 7 6 6 6 6 6 6 5 5 4 3 4 7
6 4 9 13 14 15 16 15 13 14 15 14 14 15 15 15 16 16 16 17 17 15 15 16 16 15 15 17 18 18 18 18 17 17 16 15 15 17 17 17 17 19 20 19 17 16 14 13 13 14 15 15 17 17 16 16 16 17 17 18 16 14 14 15 14 13 11 10 9 9 8 7 7 6 6 6 6 6 6 5 5 5 4 4 7
15 14 9 7 10 14 15 11 9 12 13 12 11 13 13 13 15 15 13 12 14 15 15 15 14 12 11 14 17 18 18 18 17 17 17 17 19 20 17 14 15 17 17 16 14 14 13 12 12 13 14 15 16 17 16 16 16 15 16 17 14 12 14 16 15 13 11 9 8 8 8 8 7 7 7 6 5 5 6 5 6 6 5 6 7
14 17 17 15 9 7 9 8 5 9 12 11 11 13 15 16 15 12 9 12 15 14 13 13 13 11 11 14 18 18 17 17 16 16 17 18 18 18 14 11 12 15 14 12 14 16 16 16 16 16 18 19 18 18 19 19 19 18 18 14 8 7 11 13 12 10 8 7 7 8 7 7 7 7 6 6 7 7 7 7 7 7 7 7 7
13 14 17 18 14 12 12 8 3 5 8 8 8 8 10 11 11 9 11 13 13 12 11 11 12 10 9 14 20 20 17 15 13 13 13 13 13 13 11 10 11 12 10 10 14 17 17 16 16 16 17 18 17 16 16 15 15 15 13 10 6 5 8 9 9 8 7 7 7 6 6 6 7 7 7 7 8 9 7 6 7 8 9 9 10
14 15 18 18 16 14 14 12 9 7 5 4 5 6 7 6 6 8 10 12 12 11 10 10 10 9 11 16 20 19 15 14 13 13 12 12 11 11 11 10 10 10 9 11 16 18 17 16 16 15 15 16 15 13 12 10 10 10 8 7 7 7 5 6 7 8 9 8 6 6 7 7 6 7 7 7 6 6 7 8 10 11 12 12 12
15 16 17 17 15 14 12 11 11 10 9 9 9 9 10 10 9 9 10 11 11 12 11 10 10 11 13 16 17 15 14 15 15 14 14 13 13 13 13 12 12 12 11 11 12 13 14 15 15 14 14 13 12 12 11 11 12 12 9 8 9 9 8 8 8 7 8 7 7 7 7 5 3 4 5 4 4 6 8 11 12 11 11 12 13
15 16 16 15 15 14 12 11 11 11 10 10 10 10 10 10 10 10 11 12 11 12 12 12 13 15 15 15 15 16 17 17 16 16 16 16 16 16 16 15 15 15 14 13 12 12 14 16 15 14 13 13 13 13 12 12 12 13 12 10 9 9 10 11 10 8 7 5 5 6 6 3 3 5 5 6 7 9 10 11 12 12 12 12 13
15 15 15 15 16 16 15 14 13 14 14 13 13 12 12 11 11 12 12 12 12 12 12 12 15 18 18 17 16 16 16 16 15 16 15 15 15 16 15 15 16 17 16 14 13 14 16 17 16 14 13 13 14 15 13 12 11 10 9 8 6 5 5 5 4 4 3 1 2 1 4 5 6 7 8 9 10 11 11 11 12 13 13 14 14
16 15 15 15 16 17 18 17 17 18 17 16 14 13 12 12 12 12 13 13 13 13 14 14 16 17 17 16 15 14 14 15 15 15 15 14 15 15 14 15 16 18 17 15 14 14 15 15 15 14 13 13 14 13 13 13 13 12 10 9 8 9 9 9 9 7 4 3 4 2 3 4 5 6 7 9 10 9 9 11 12 12 12 13 13
17 16 16 17 18 20 21 20 20 20 19 16 14 12 13 13 13 13 14 14 15 16 17 17 16 15 15 14 14 14 14 15 15 16 16 16 15 15 16 16 17 18 18 19 20 20 18 17 17 17 17 16 16 14 13 13 13 12 11 10 10 9 9 8 8 6 3 2 2 3 3 4 5 6 7 8 9 9 9 10 11 12 12 12 13
18 17 17 17 19 21 21 20 20 21 20 18 15 13 13 14 14 15 16 16 15 15 15 15 15 15 15 14 14 14 15 15 16 17 17 17 16 16 17 17 18 19 20 21 22 21 20 19 19 19 19 18 16 16 15 14 13 12 10 10 10 9 8 8 7 4 1 1 1 3 4 5 5 6 6 6 6 8 8 9 10 11 11 11 11
17 17 18 19 20 20 20 20 20 20 20 19 17 15 14 15 15 15 16 15 15 14 13 14 14 14 14 15 15 15 15 16 17 17 17 17 17 17 17 17 18 19 20 21 21 20 20 20 19 18 18 17 16 16 15 15 14 13 12 10 9 8 6 4 3 2 1 1 2 4 5 5 5 6 6 6 7 7 8 9 9 9 9 10 10
17 17 18 20 21 21 21 21 20 19 19 18 17 16 15 14 14 14 14 14 14 13 14 14 13 13 14 15 15 15 16 17 17 17 17 17 16 17 17 17 18 19 20 20 20 20 20 20 19 19 18 18 17 16 15 14 13 12 11 9 8 6 4 3 2 2 2 3 4 6 6 5 5 6 6 6 7 7 8 8 9 9 10 10 11
19 18 19 20 21 20 20 20 20 19 18 17 17 16 16 15 16 16 16 16 16 16 16 15 15 14 15 16 16 16 17 17 17 17 17 17 16 17 18 19 20 21 22 22 22 21 21 21 20 19 19 18 17 16 14 13 12 10 9 8 6 5 4 4 3 2 3 4 6 7 6 6 6 6 6 6 7 8 9 10 11 11 11 11 12
19 19 19 20 20 20 20 20 19 19 19 18 17 17 16 17 18 18 18 18 18 18 18 17 17 17 17 17 18 18 19 19 19 18 18 18 18 19 21 23 23 24 24 24 23 23 22 21 20 19 18 17 16 15 14 12 11 10 8 6 5 4 3 3 3 3 2 2 4 6 6 6 6 7 7 7 8 8 9 10 10 11 11 11 12
Wind_Direction
184 183 183 183 183 183 186 188 190 192 193 193 193 195 197 199 201 201 201 201 199 198 198 200 200 201 204 207 208 208 206 206 207 208 211 214 216 219 217 211 212 216 219 223 225 224 222 222 223 225 227 229 233 237 237 234 230 236 243 242 245 246 241 246 259 271 277 279 280 283 285 284 283 280 278 279 278 277 278 281 284 285 285 286 288
185 183 182 182 183 184 185 187 188 191 193 192 193 195 195 197 198 198 199 200 199 199 199 200 201 201 203 205 207 208 207 206 207 208 211 213 214 217 218 214 214 217 220 222 224 225 224 224 225 225 227 231 235 238 241 242 237 237 238 239 245 249 245 246 258 271 279 283 284 285 286 284 283 282 282 283 284 283 280 279 280 280 280 282 284
185 182 181 182 183 184 185 186 188 190 192 193 194 196 196 196 197 197 199 199 199 201 201 201 201 200 202 203 203 206 207 206 208 209 211 213 215 217 217 216 217 219 221 222 223 224 224 225 227 226 228 230 233 238 242 245 248 249 247 247 249 253 255 255 259 268 278 284 286 287 288 288 287 288 288 287 287 286 283 282 282 283 282 283 284
184 183 183 183 183 184 185 186 188 190 192 194 195 196 196 196 196 197 199 200 200 200 202 202 200 200 201 201 200 202 204 205 207 208 210 212 215 217 218 218 219 220 223 224 224 224 225 226 228 228 229 231 232 235 239 242 245 248 249 251 252 255 258 258 258 263 272 279 281 282 284 286 287 288 289 289 289 287 287 288 287 285 284 285 287
185 184 184 184 184 185 186 187 189 190 193 195 196 197 197 196 196 196 199 202 201 199 200 202 200 199 200 200 199 200 201 203 205 207 209 211 213 216 217 219 221 222 223 225 225 225 226 227 229 228 228 231 232 233 236 239 240 242 246 248 249 253 253 254 256 258 265 274 279 281 283 283 285 287 289 290 291 293 292 290 288 286 286 288 290
185 184 185 185 186 186 187 188 190 191 193 195 196 197 198 197 196 196 198 201 201 200 199 200 201 200 200 200 200 199 200 201 203 205 208 210 212 215 217 218 221 223 224 225 226 226 227 228 230 230 230 230 232 234 235 237 238 241 245 246 250 254 253 253 255 257 263 269 275 280 282 282 285 288 289 289 291 295 295 291 287 287 289 291 292
186 185 186 186 187 187 188 189 191 193 193 195 196 197 198 198 197 197 198 199 201 201 199 199 200 201 200 201 201 200 200 201 202 204 207 209 211 213 216 217 218 221 223 225 226 226 227 228 229 228 228 228 231 234 235 236 238 241 242 246 251 253 256 258 257 259 264 268 272 277 281 285 289 291 293 292 289 288 291 293 294 295 295 295 297
187 186 187 188 187 188 189 189 191 192 193 194 196 196 198 199 198 197 196 198 201 202 201 199 199 201 201 201 201 201 201 202 203 203 205 207 209 211 214 216 217 219 222 224 227 229 229 230 230 229 227 227 228 231 235 236 238 241 242 245 248 249 253 258 260 261 265 269 274 278 283 286 287 288 291 290 287 289 294 297 300 303 304 303 303
189 187 188 189 188 187 187 187 189 191 192 194 196 197 198 199 198 197 197 199 201 202 203 200 199 202 202 201 202 203 203 204 204 203 203 204 207 210 211 213 216 218 220 223 226 229 231 233 234 232 229 226 227 229 232 232 233 237 242 244 247 248 250 253 258 262 263 267 273 276 279 280 280 283 286 288 293 299 302 303 305 308 310 309 306
190 189 189 190 188 185 185 185 186 189 191 193 195 197 197 198 198 198 198 200 201 202 204 204 202 202 203 203 203 204 206 207 206 205 204 203 204 207 210 211 214 216 218 222 226 228 231 234 237 238 234 229 229 233 236 235 235 238 242 243 242 245 249 253 255 257 260 265 271 275 278 279 281 286 290 294 298 301 305 311 315 316 316 312 309
191 190 190 189 186 183 183 183 184 187 189 191 192 195 197 198 199 198 198 199 201 202 204 205 205 204 204 205 205 206 209 210 209 207 207 206 204 205 209 209 212 215 216 220 225 228 231 234 237 240 238 231 230 237 243 245 246 250 253 252 246 242 245 252 257 260 263 267 270 275 279 280 284 289 292 296 300 304 311 321 323 319 316 312 311
190 190 189 187 185 184 183 183 183 184 186 188 189 191 194 198 199 198 198 199 200 202 203 205 207 207 206 206 207 209 211 212 212 210 209 210 207 205 209 211 211 214 216 218 222 226 230 233 236 238 238 233 229 235 244 249 252 255 258 259 255 249 244 246 251 255 262 271 275 276 278 282 286 287 288 295 303 307 309 316 319 313 309 306 303
189 189 188 186 185 184 183 183 182 182 183 185 186 188 191 196 198 198 199 198 198 201 203 204 206 208 209 209 210 212 214 214 213 212 212 213 211 208 209 214 214 215 217 218 221 224 227 230 234 236 239 236 231 231 239 247 253 256 256 256 257 256 251 247 247 248 253 262 269 272 274 279 281 280 283 295 301 301 301 305 310 307 300 297 293
188 188 187 186 184 183 183 184 183 182 181 182 183 185 189 193 196 198 198 198 198 200 203 204 206 209 211 212 213 214 217 217 215 214 214 216 215 213 213 217 219 219 220 221 222 223 225 227 229 231 234 236 233 230 231 236 244 251 252 252 254 259 259 253 247 245 245 247 252 260 269 273 274 277 285 292 292 293 298 302 304 299 290 287 288
187 186 186 185 183 182 184 186 184 181 181 181 182 184 187 190 195 197 199 199 199 200 203 205 206 208 210 213 215 216 218 220 217 215 216 218 218 217 217 221 225 225 223 223 223 224 224 225 227 228 229 231 231 230 229 229 232 237 241 245 250 253 253 252 250 249 245 242 245 255 264 269 273 278 284 287 288 295 303 304 301 294 285 286 292
186 186 186 186 184 183 184 185 184 181 181 182 182 184 186 188 192 196 199 202 201 200 203 205 206 208 210 213 216 218 220 221 220 216 217 218 218 218 219 222 228 230 227 225 224 225 224 224 226 228 228 229 230 229 228 227 227 229 233 237 244 248 250 251 253 254 253 252 254 258 262 266 272 278 284 288 293 299 304 303 300 297 294 298 304
187 186 187 187 185 184 184 184 183 181 181 183 184 184 185 187 190 194 198 202 203 202 204 207 208 209 210 211 214 217 220 222 221 218 217 215 214 216 218 220 226 230 230 228 225 225 226 225 225 226 227 228 229 229 229 228 226 230 235 238 245 251 252 254 258 258 256 256 258 259 259 264 270 277 285 291 296 302 304 302 305 311 312 313 315
188 187 188 188 186 185 186 184 183 182 183 184 185 185 185 186 189 192 197 203 206 206 206 208 209 210 211 212 212 215 221 223 221 219 217 215 214 214 215 216 222 226 228 229 227 227 228 227 226 226 227 228 229 230 231 229 226 227 235 240 246 249 249 253 259 257 250 246 248 249 250 259 269 277 284 289 295 301 297 295 304 313 314 315 316
189 188 188 187 186 186 186 185 184 183 184 186 187 186 184 186 189 192 198 204 208 210 210 210 211 212 213 215 214 214 219 224 222 220 218 217 216 213 210 212 217 221 224 226 227 228 231 231 229 228 227 227 228 230 232 230 225 224 231 237 241 244 247 250 248 240 229 232 241 245 250 262 275 282 283 283 286 288 282 279 288 301 308 311 310
188 187 186 185 187 187 186 186 185 185 185 186 187 187 185 186 189 192 198 203 207 211 212 212 214 215 216 218 216 215 218 222 222 221 219 219 218 213 208 209 214 217 218 221 224 227 230 232 233 232 230 229 227 228 231 230 224 222 227 234 239 240 241 246 245 237 232 241 253 261 264 270 278 279 273 266 264 268 267 263 271 291 305 306 307
184 184 184 185 187 187 186 186 186 186 186 185 186 187 187 189 190 192 196 201 204 209 213 214 216 218 219 220 219 218 218 218 220 221 219 218 218 215 209 207 211 213 214 218 221 226 229 230 232 234 235 233 231 231 233 233 231 229 228 232 239 240 237 243 252 255 260 269 276 274 268 267 268 265 260 257 259 261 258 262 278 296 306 307 311
181 181 183 185 186 186 186 185 185 186 186 184 184 186 188 190 190 190 194 198 200 205 210 214 217 220 221 221 222 221 219 216 217 220 218 217 218 216 212 209 209 211 214 217 221 225 228 229 230 233 235 235 234 233 234 237 239 239 237 236 240 241 241 245 252 257 262 264 260 257 258 258 258 258 257 263 275 276 276 285 293 301 305 306 313
180 179 182 184 184 185 184 183 183 185 185 183 183 184 185 188 189 189 191 195 197 201 205 209 215 219 220 221 221 222 221 217 216 218 218 218 218 218 217 214 210 211 215 218 220 224 228 230 231 232 233 233 232 230 230 234 238 240 241 240 241 243 242 243 245 245 247 248 247 248 249 243 242 246 244 253 280 292 294 295 297 304 308 306 307
178 178 181 182 182 182 182 181 182 184 181 180 180 181 182 184 186 187 189 191 194 198 200 204 211 216 219 221 222 222 221 218 218 218 218 218 218 219 220 219 215 213 217 222 224 226 229 230 231 232 232 229 226 224 224 227 231 234 235 235 236 238 236 232 229 227 231 239 241 238 234 229 229 236 234 247 279 288 290 294 298 306 311 306 303
178 178 180 179 179 179 179 179 181 181 179 178 180 181 181 183 184 185 187 190 193 196 198 201 207 213 218 220 221 222 220 217 218 218 218 220 221 220 221 223 220 217 218 222 228 231 230 227 226 228 228 222 218 217 217 221 225 226 226 225 225 226 223 218 217 218 223 230 228 222 223 221 213 219 238 255 272 277 286 302 307 310 313 311 310
178 177 177 177 178 177 177 178 179 180 179 179 180 181 182 182 183 184 187 191 194 196 198 202 206 211 215 219 219 220 220 220 219 216 214 217 220 220 221 223 223 222 220 220 226 233 235 231 225 221 215 209 206 209 213 218 222 223 222 218 213 211 209 211 215 218 219 219 215 212 214 205 192 209 239 249 255 263 284 309 312 313 317 318 316
178 176 176 177 177 177 177 177 177 178 179 180 182 183 184 184 184 186 190 193 195 197 201 205 209 210 213 217 218 217 219 222 220 212 208 211 215 217 218 219 221 222 221 220 224 230 236 238 233 219 204 198 196 201 212 221 223 222 218 210 203 205 211 214 218 219 215 211 209 203 194 187 192 217 232 231 230 241 273 308 313 314 319 319 315
177 176 178 178 177 178 178 176 175 178 180 182 183 185 187 189 189 191 194 195 195 198 201 205 210 211 212 214 215 214 216 219 218 209 202 205 210 212 214 216 217 218 219 218 220 225 231 235 229 215 204 204 205 208 212 217 218 216 209 200 199 208 216 214 211 208 203 200 197 189 185 196 210 219 225 224 218 221 245 289 305 313 320 319 313
176 177 178 177 177 177 177 177 178 180 182 183 184 186 190 193 194 196 199 198 197 199 202 205 209 209 211 212 211 211 213 216 218 214 203 202 208 212 214 215 215 216 218 216 212 215 218 215 212 213 216 220 224 222 213 204 208 210 204 200 205 211 210 205 201 197 193 191 191 191 195 206 213 216 224 223 210 210 231 270 302 311 317 313 308
175 176 178 177 176 176 177 180 183 182 182 184 181 179 186 193 194 195 199 200 201 202 204 207 208 208 211 214 213 214 218 218 218 217 210 205 208 211 215 216 212 212 216 213 207 210 212 205 207 220 223 221 224 222 209 198 205 212 207 205 211 211 203 197 196 194 190 190 193 196 198 202 208 214 221 218 207 213 231 251 282 299 309 309 307
175 177 180 177 174 176 179 182 183 184 185 186 180 170 171 182 188 191 195 196 198 202 206 207 206 206 210 215 213 213 217 216 210 209 207 203 200 201 208 213 207 207 212 208 202 206 211 207 208 217 218 215 217 217 207 200 208 214 210 208 210 205 195 191 191 189 188 191 194 196 197 202 209 212 214 215 215 224 238 251 269 289 301 304 307
179 178 181 178 172 175 180 182 184 186 186 186 184 176 171 174 177 180 187 190 194 200 206 208 207 204 204 207 205 202 206 207 200 197 199 198 193 192 199 206 204 204 208 204 199 203 210 210 210 214 214 213 214 213 209 207 210 213 211 209 205 197 191 190 187 183 185 191 194 195 198 203 208 207 206 210 218 229 243 252 263 282 295 302 306
185 179 177 175 173 177 183 182 182 186 188 188 187 183 181 184 181 171 171 181 189 197 204 207 210 209 204 199 194 191 196 200 195 187 188 191 190 190 197 205 206 204 202 197 197 204 210 211 211 213 213 212 212 212 212 212 212 210 210 209 201 192 189 188 181 176 182 192 194 196 199 198 199 200 202 209 219 231 245 253 258 267 286 305 311
187 182 176 174 173 176 183 185 183 185 189 190 190 190 190 192 186 174 168 174 181 188 198 205 209 211 210 205 196 187 186 191 191 186 186 190 195 201 205 204 202 201 200 198 199 207 212 212 213 215 213 211 212 212 211 210 209 207 208 209 200 187 181 178 174 172 182 191 194 199 200 197 196 197 201 211 222 232 244 250 253 260 279 307 316
182 180 174 174 177 178 183 186 185 185 189 191 194 197 196 193 189 182 178 182 186 184 187 197 204 208 211 213 209 201 194 191 193 196 200 204 209 211 206 198 193 193 197 202 207 213 216 216 215 213 210 209 208 204 198 198 201 202 203 202 193 178 172 174 176 181 188 194 199 201 197 195 198 199 204 213 221 235 253 258 259 263 277 307 320
173 172 169 171 177 181 187 191 189 187 190 194 197 201 200 197 196 189 180 185 195 195 182 181 191 200 206 211 214 213 210 209 210 214 217 220 219 210 199 192 192 194 198 205 212 216 219 218 212 205 203 203 200 195 189 191 197 199 197 190 179 170 174 182 184 186 189 197 202 196 191 196 203 205 214 220 219 228 244 254 261 265 276 311 314
87 119 169 180 184 186 189 192 190 187 190 193 197 202 201 196 198 201 193 186 184 177 164 165 177 187 195 202 207 210 212 214 218 218 215 216 215 208 200 199 202 201 200 204 208 208 209 205 195 189 189 186 183 183 184 189 195 195 188 178 170 171 181 183 179 177 184 199 200 186 188 204 206 205 221 232 230 233 241 250 264 267 262 271 282
58 51 71 138 176 183 177 166 159 166 174 180 190 200 201 196 198 208 202 172 148 142 144 154 167 173 178 188 197 200 200 200 200 198 194 194 197 199 203 213 212 200 194 197 198 195 191 186 177 175 173 166 166 173 178 180 181 176 167 164 166 173 174 170 165 164 175 194 198 187 192 209 208 205 222 235 238 240 242 249 265 273 271 269 276
60 53 61 75 91 118 125 118 134 161 168 178 192 200 206 206 201 190 160 136 133 136 143 155 165 169 172 179 182 180 178 176 177 178 179 183 189 195 201 206 193 181 180 186 191 191 189 182 173 170 166 162 164 169 170 169 167 161 151 147 149 163 163 159 157 161 176 194 197 191 196 209 211 210 220 235 243 243 241 245 260 275 283 284 286
56 52 58 68 73 76 82 85 105 162 169 181 194 196 202 205 193 163 142 143 147 146 149 160 167 167 170 173 170 165 161 160 161 164 166 170 177 182 181 172 164 163 165 175 182 184 179 166 156 152 152 152 152 153 154 157 160 159 152 143 138 156 167 164 157 163 187 201 198 194 202 214 220 225 230 239 249 254 259 268 268 263 261 263 271
42 43 49 63 73 74 72 65 59 68 93 102 92 92 97 107 122 135 145 152 155 153 152 154 153 152 159 165 165 162 157 154 152 152 154 154 155 155 152 144 144 149 153 161 169 169 161 149 143 141 142 144 144 140 136 138 144 147 148 147 143 145 167 185 178 180 195 200 193 198 211 218 226 235 237 241 248 251 251 255 255 254 259 271 282
42 39 42 54 67 76 79 76 70 68 67 61 62 74 86 92 106 132 144 146 148 148 141 129 127 141 155 161 160 155 147 142 140 139 139 137 134 133 132 127 130 138 141 142 147 147 139 132 131 134 135 138 141 141 138 140 146 146 145 149 152 155 171 191 195 197 206 209 209 214 222 228 241 248 250 260 270 265 261 262 265 270 276 283 287
50 46 43 47 56 66 74 78 78 75 70 66 70 82 94 105 118 128 131 132 133 131 124 117 122 131 137 138 135 129 125 125 125 123 122 122 122 121 119 117 121 129 130 124 122 127 127 124 125 130 130 130 134 139 138 140 147 153 155 158 167 176 185 191 193 193 199 216 226 220 218 231 256 259 263 266 262 263 272 280 282 280 277 277 277
52 49 46 46 51 57 61 64 69 74 73 72 74 81 89 99 105 108 110 114 114 112 113 117 121 123 122 121 119 115 112 114 117 117 116 117 116 115 114 111 110 113 115 115 119 126 129 129 128 129 127 122 120 120 115 109 115 133 149 152 141 113 96 92 100 126 142 12 344 232 216 232 242 245 254 261 259 256 259 268 275 277 276 275 275
55 53 51 48 47 52 55 56 62 70 73 71 72 76 81 86 91 95 99 102 103 106 111 117 122 124 124 123 120 114 110 111 114 117 119 115 109 107 108 107 104 102 102 107 113 117 118 118 115 111 105 99 95 96 100 104 108 113 116 115 106 94 86 79 76 79 69 12 360 338 271 269 267 264 272 284 291 287 275 271 280 287 286 282 279
52 56 57 53 49 49 51 51 52 57 60 61 66 74 79 81 86 93 99 101 104 108 112 115 119 121 122 120 116 113 112 112 112 112 111 108 104 102 102 102 101 98 98 105 110 108 104 102 102 102 101 95 89 89 96 106 115 119 121 122 123 125 131 132 116 93 66 16 358 341 316 305 298 291 291 299 304 301 291 286 290 293 292 290 288
49 54 58 58 55 53 52 53 54 56 55 54 57 66 76 82 87 94 100 102 102 104 109 114 116 115 117 117 114 111 111 111 109 105 103 101 101 101 100 100 101 100 101 105 108 105 101 102 103 105 108 107 105 105 105 106 110 114 116 120 121 121 130 144 144 133 134 158 20 349 328 312 303 299 302 305 301 295 294 294 292 291 292 293 293
47 51 56 59 59 56 53 53 56 58 59 58 57 62 74 83 86 91 97 99 95 93 100 110 113 112 110 110 106 103 103 103 101 100 99 98 98 98 97 98 103 107 110 112 112 110 110 112 112 112 113 115 116 118 117 115 114 112 108 107 110 109 115 134 146 152 161 112 31 356 334 321 315 315 318 319 310 304 304 304 303 306 311 310 309
46 48 52 55 57 57 55 55 55 56 58 60 60 62 70 76 78 81 89 90 85 80 84 92 97 98 97 96 95 93 93 93 92 93 94 93 92 93 93 96 101 105 107 108 109 110 113 115 115 114 113 112 111 111 109 107 107 106 103 102 102 99 99 105 101 93 102 76 31 0 343 340 343 340 337 339 340 339 338 336 337 338 332 323 321
44 46 49 53 55 56 55 56 56 56 56 57 58 58 62 65 66 68 72 73 70 67 65 68 72 77 79 80 80 80 81 82 83 85 87 87 88 91 97 102 105 106 106 107 108 109 110 111 112 112 111 110 109 108 106 105 104 101 98 97 98 95 92 88 71 60 85 76 40 16 5 5 2 354 351 356 359 353 342 336 337 338 334 326 323
49 50 51 53 55 56 56 56 55 54 54 54 53 53 57 62 65 65 64 64 64 63 61 61 65 68 69 70 71 74 78 80 80 81 82 82 85 94 102 106 108 109 110 110 110 109 109 109 109 109 108 106 104 102 98 95 92 86 81 79 76 63 53 51 35 21 43 58 32 16 12 11 9 5 358 350 344 340 335 330 328 329 328 324 321